Find Starlink 30825

NORAD ID: 58384 Int'l Des: 2023-178 Owner: SPXS Country: US Constellation: starlink operational
LEOCIRCULAR

Live-Position

3D-Globus wird geladen...

Über Starlink 30825

Beschreibung wird geladen...

Nächste Überflüge

Passes for default location (London). Set your location on the main map for personalized predictions.

Höhenverlauf

Loading altitude history...

Zweizeiliger Elementsatz

1 58384U 23178L 26132.52726847 .00000228 00000-0 17901-4 0 9998
2 58384 53.1614 63.9302 0001659 93.8423 266.2770 15.34387159139675
Epoch: 12. Mai 2026 • Age: 17 hours

Aktueller Status

Höhe 479.3 km
Geschwindigkeit 7.63 km/s
Subsatellitenpunkt -45.86°S, 20.32°W
Startdatum 20. Nov. 2023
Alter 2.4 years
Typ internet

Technische Details

Klassifizierung Payload
Masse 730.00 kg
Trockenmasse 700.00 kg
Gesamtmasse 730.00 kg
Länge 0.30 m
Durchmesser 4.10 m
Spannweite 29.00 m
Form Box + pan
Hersteller SPXS
Bus-Typ Starlink V2M
Phasenstatus In Orbit
Besitzer/Staat SPXS/US

Most Searched